Weather History for KMLI - August, 2013

Change the Weather History Date:

Wednesday, August 21, 2013

  Actual Average Record
Temperature  
Mean Temperature 80 °F 73 °F  
Max Temperature 89 °F 84 °F 99 °F (1936)
Min Temperature 70 °F 63 °F 44 °F (1950)
Degree Days  
Heating Degree Days 0 0  
Month to date heating degree days 4 0  
Since 1 June heating degree days 38 21  
Since 1 July heating degree days 11 2  
Cooling Degree Days 15 8  
Month to date cooling degree days 121 195  
Year to date cooling degree days 672 809  
Since 1 June cooling degree days 582 733  
Growing Degree Days 30 (Base 50)    
Moisture  
Dew Point 66 °F    
Average Humidity 67    
Maximum Humidity 84    
Minimum Humidity 50    
Precipitation  
Precipitation 0.00 in 0.16 in 3.55 in (1987)
Month to date precipitation 0.76 3.11  
Year to date precipitation 32.61 25.75  
Snow  
Snow 0.00 in 0.00 in - ()
Month to date snowfall 0.0 0.0  
Since 1 June snowfall 0.0 0.0  
Since 1 July snowfall 0.0 0.0  
Snow Depth 0.00 in    
Sea Level Pressure  
Sea Level Pressure 30.02 in    
Wind  
Wind Speed 8 mph (SSW)    
Max Wind Speed 14 mph    
Max Gust Speed 20 mph    
Visibility 9 miles    
Events      
T = Trace of Precipitation, MM = Missing Value Source: NWS Daily Summary

Daily Weather History Graph

Daily Weather History Graph

Search for Another Location

Airport or City:

Trip Planner

Search our weather history database for the weather conditions in past years. The results will help you decide how hot, cold, wet, or windy it might be!

Date:

Astronomy

Aug. 21, 2013 Rise Set
Actual Time 6:17 AM CDT 7:52 PM CDT
Civil Twilight 5:48 AM CDT 8:21 PM CDT
Nautical Twilight 5:12 AM CDT 8:56 PM CDT
Astronomical Twilight 4:35 AM CDT 9:33 PM CDT
Moon 7:59 PM CDT (8/21) 6:58 AM CDT (8/21)
Length of Visible Light 14h 33m
Length of Day
13h 34m
Waxing Gibbous, 99% of the Moon is Illuminated
Aug 21
Waxing Gibbous
Aug 28
Last Quarter
Sep 5
New
Sep 12
First Quarter
Sep 19
Full

Hourly Weather History & Observations

Time (CDT) Temp. Heat Index Dew Point Humidity Pressure Visibility Wind Dir Wind Speed Gust Speed Precip Events Conditions
12:52 AM 73.0 °F - 64.0 °F 73% 30.02 in 9.0 mi South 6.9 mph - N/A   Clear
1:52 AM 73.0 °F - 64.0 °F 73% 30.02 in 9.0 mi South 8.1 mph - N/A   Partly Cloudy
2:52 AM 72.0 °F - 64.0 °F 76% 30.02 in 9.0 mi South 9.2 mph - N/A   Clear
3:52 AM 72.0 °F - 64.0 °F 76% 30.01 in 8.0 mi SSW 8.1 mph - N/A   Partly Cloudy
4:52 AM 72.0 °F - 64.0 °F 76% 30.03 in 9.0 mi SSW 5.8 mph - N/A   Mostly Cloudy
5:52 AM 71.1 °F - 64.0 °F 78% 30.04 in 8.0 mi Calm Calm - N/A   Mostly Cloudy
6:52 AM 70.0 °F - 64.0 °F 81% 30.05 in 7.0 mi SW 4.6 mph - N/A   Mostly Cloudy
7:52 AM 72.0 °F - 64.9 °F 78% 30.06 in 6.0 mi Calm Calm - N/A   Haze
8:52 AM 75.0 °F - 66.0 °F 73% 30.06 in 9.0 mi SW 5.8 mph - N/A   Scattered Clouds
9:52 AM 79.0 °F - 66.0 °F 64% 30.05 in 10.0 mi SSW 6.9 mph - N/A   Clear
10:52 AM 82.9 °F 85.4 °F 66.9 °F 58% 30.05 in 10.0 mi SW 11.5 mph - N/A   Clear
11:52 AM 84.9 °F 88.2 °F 68.0 °F 57% 30.04 in 10.0 mi SSW 10.4 mph - N/A   Clear
12:52 PM 86.0 °F 88.8 °F 66.9 °F 53% 30.04 in 10.0 mi SW 11.5 mph - N/A   Clear
1:52 PM 86.0 °F 88.8 °F 66.9 °F 53% 30.03 in 10.0 mi SSW 10.4 mph - N/A   Clear
2:52 PM 88.0 °F 90.7 °F 66.9 °F 49% 30.02 in 10.0 mi SSW 11.5 mph - N/A   Clear
3:52 PM 88.0 °F 91.4 °F 68.0 °F 51% 30.01 in 10.0 mi South 11.5 mph - N/A   Clear
4:52 PM 87.1 °F 89.9 °F 66.9 °F 51% 29.99 in 10.0 mi SSW 12.7 mph - N/A   Clear
5:52 PM 86.0 °F 88.8 °F 66.9 °F 53% 29.98 in 10.0 mi SSW 9.2 mph - N/A   Clear
6:52 PM 82.9 °F 85.4 °F 66.9 °F 58% 29.96 in 10.0 mi South 8.1 mph - N/A   Clear
7:52 PM 81.0 °F 83.3 °F 66.9 °F 62% 29.97 in 10.0 mi South 6.9 mph - N/A   Clear
8:52 PM 79.0 °F - 66.0 °F 64% 30.00 in 10.0 mi SSW 4.6 mph - N/A   Partly Cloudy
9:52 PM 78.1 °F - 66.9 °F 68% 30.01 in 10.0 mi SSW 5.8 mph - N/A   Clear
10:52 PM 78.1 °F - 66.9 °F 68% 30.01 in 10.0 mi SSW 9.2 mph - N/A   Clear
11:52 PM 77.0 °F - 66.0 °F 69% 30.01 in 10.0 mi SW 3.5 mph - N/A   Clear